Погода в Люблине

Польша     51°14′52″N   22°34′03″E
темп.,
°C
ветер,
м/с
пор.,
м/с
влажн.,
%
обл.,
%
осадки,
мм/ч
давл.,
гПа
погр.,
м
1 марта, пн
пн101:00+3ссз61093100 0.3 1031418
04:00+2ссз3694100 0.0 1032256
07:00+2сз369497 0.0 1033191
10:00+4сз458099 0.0 1034537
13:00+6зсз336778 0.0 1035764
16:00+6зсз35744 0.0 1034559
19:00+2з35922 0.0 1035104
22:00+2з48940 0.0 1034183
2 марта, вт
вт201:00+1зюз59930 0.0 1034196
04:00+1з611910 0.0 1032264
07:00+1з612900 0.0 1032308
10:00+6з712730 0.0 1031549
13:00+9зсз812570 0.0 1030791
16:00+9сз6116111 0.0 1029725
19:00+5зсз512805 0.0 1030329
22:00+3сз48900 0.0 1032194
3 марта, ср
ср301:00+2ссз33950 0.0 103358
04:000с12960 0.0 103221
07:00+1ссв009529 0.0 103222
10:00+5ю117583 0.0 1032328
13:00+7юз225441 0.0 1030576
16:00+8зюз22570 0.0 1027150
19:00+5ююз34810 0.0 102647
22:00+3ююз46870 0.0 102398
4 марта, чт
чт401:00+3юз410860 0.0 1021153
04:00+2юз6118244 0.0 1018227
07:00+2зюз6128432 0.0 1016326
10:00+6з7117159 0.0 1015607
13:00+9з696475 0.0 10131038
16:00+7зсз498192 0.1 1011626
19:00+5з358993 0.2 1011127
22:00+5з2787100 0.1 1011322
5 марта, пт
пт501:00+4зюз2395100 0.5 1010122
04:00+4сз2398100 1.3 1009165
07:00+3с2495100 2.2 1009292
10:00+1ссв5796100 1.2 1010287
13:00+1ссв6992100 1.7 1011609
16:00−1ссв71094100 1.6 1013666
19:00−1с3883100 2.2 1016726
22:00−3ссз4974100 0.0 1020239